Regional Weather Roundup
Issued by NWS

Home | Current Version | Previous Version | Graphics & Text | Print | Product List | Glossary On
Versions: 1 2 3 4 5 6 7 8 9 10 11 12 13 14 15 16 17 18 19 20 21 22 23 24 25 26 27 28 29 30 31 32 33 34 35 36 37 38 39 40 41 42 43 44 45 46 47 48 49 50
352
ASUS43 KDMX 191006
RWRIA

WEATHER ROUNDUP FOR IOWA
NATIONAL WEATHER SERVICE DES MOINES IA
400 AM CST THU JAN 19 2017

NOTE: "FAIR" INDICATES FEW OR NO CLOUDS BELOW 12,000 FEET WITH NO
SIGNIFICANT WEATHER AND/OR OBSTRUCTIONS TO VISIBILITY.

* - THESE STATIONS ARE NOT NWS STATIONS...THUS NOT UNDER NWS
QUALITY CONTROL.  THEY ALSO DO NOT REPORT WEATHER SUCH
AS PRECIPITATION OR FOG.

IAZ001>003-012>014-020>022-031>034-043>046-191100-
   NORTHWEST IOWA

CITY           SKY/WX    TMP DP  RH WIND       PRES   REMARKS
CARROLL *      MOCLDY    34  32  93 SE7       29.85F FOG     WCI  28
CHEROKEE *     CLEAR     34  33  98 S6        29.81F WCI  29
DENISON *      CLEAR     36  34  93 S6        29.81F WCI  31
LE MARS *      CLEAR     37  34  87 S10       29.79S WCI  30
ORANGE CITY *  CLEAR     36  34  93 S9        29.77F WCI  29
SHELDON *      CLEAR     34  34 100 S6        29.76F WCI  29
SIOUX CITY     CLEAR     34  32  92 SE12      29.79F WCI  25
SPENCER        CLEAR     34  32  92 S10       29.79F WCI  26
STORM LAKE *   CLEAR     34  32  93 S13       29.81F FOG     WCI  25
$$

IAZ055>058-069>071-079>083-090>094-191100-
   SOUTHWEST IOWA

CITY           SKY/WX    TMP DP  RH WIND       PRES   REMARKS
ATLANTIC *     MOCLDY    34  34 100 CALM      29.85F FOG
AUDUBON *      CLEAR     36  32  87 S8        29.85F FOG     WCI  29
CLARINDA *     PTCLDY    30  32 100 CALM      29.87F FOG
COUNCIL BLFS * CLEAR     32  32 100 SE8       29.82F FOG     WCI  25
CRESTON *      CLEAR     34  34 100 S5        29.87F WCI  30
HARLAN  *      MOCLDY    36  36 100 S12       29.87F WCI  27
LAMONI         CLOUDY    36  35  96 SE7       29.87F WCI  30
RED OAK *      CLOUDY    34  34 100 CALM      29.85F FOG
SHENANDOAH *   MOCLDY    36  34  93 SE7       29.85F FOG     WCI  30
$$

IAZ047>049-059>061-072>074-084-191100-
   CENTRAL IOWA

CITY           SKY/WX    TMP DP  RH WIND       PRES   REMARKS
AMES           FOG       34  34 100 SE6       29.89F VSB 1/4 WCI  29
ANKENY *       FOG       34  34 100 E7        29.91F VSB<1/4 WCI  28
BOONE *        MIX PCPN  34  34 100 S7        29.87F VSB<1/4 WCI  28
CHARITON *     CLEAR     32  32 100 SE5       29.89F FOG     WCI  27
DES MOINES     FOG       34  34 100 E6        29.89F VSB 1/4 WCI  29
GRINNELL*      SNOW      31  31 100 SE5       29.93F VSB 1/4 WCI  26
KNOXVILLE *    FOG       32  32 100 E6        29.89F VSB<1/4 WCI  26
MARSHALLTOWN   FOG       33  33 100 CALM      29.91F VSB 1/4
NEWTON *       FOG       32  32 100 SE7       29.90F VSB<1/4 WCI  26
PELLA *        FOG       31  31  99 E5        29.92F VSB 1/4 WCI  26
PERRY *        FOG       34  34 100 SE7       29.87F VSB 1/4 WCI  28
$$

IAZ004>006-015-016-023>025-035-036-191100-
   NORTH CENTRAL IOWA

CITY           SKY/WX    TMP DP  RH WIND       PRES   REMARKS
ALGONA *       FOG       34  34 100 S15       29.83F VSB 1/4 WCI  24
CLARION *      FOG       32  32 100 S16G23    29.87F VSB 1/4 WCI  21
ESTHERVILLE    CLEAR     33  33 100 S15       29.79F FOG     WCI  23
FORT DODGE *   CLOUDY    34  30  86 S8        29.87F VSB 3/4 WCI  27
MASON CITY     FOG       31  31 100 S17       29.88S VSB 3/4 WCI  19
FOREST CITY *    N/A     32  32 100 S9        29.86F FOG     WCI  24
WEBSTER CITY * FOG       34  34 100 S9        29.87F VSB<1/4 WCI  26
IOWA FALLS *   FOG       33  32  96 S7        29.92F VSB 1/2 WCI  27
$$

IAZ007>011-017>019-026>030-037>042-050>054-066-191100-
   NORTHEAST IOWA

CITY           SKY/WX    TMP DP  RH WIND       PRES   REMARKS
CEDAR RAPIDS   FOG       31  31 100 SE6       29.94F VSB 1/4 WCI  25
CHARLES CITY * FOG       32  32 100 S16       29.91F VSB 1/4 WCI  21
CLINTON *      PTCLDY    30  29  96 E6        29.98F FOG     WCI  24
DECORAH *      FOG       32  32 100 S12G18    29.91F VSB 3/4 WCI  23
DUBUQUE        FOG       32  32 100 S8        29.97F VSB 1/4 WCI  25
MONTICELLO *   FOG       32  32 100 SE5       29.97F VSB<1/4 WCI  27
OELWEIN *      FOG       32  32 100 S7        29.93F VSB 1/4 WCI  26
WATERLOO       FOG       32  31  96 S6        29.93F VSB 1/2 WCI  26
$$

IAZ064-065-067-068-078-191100-
   EAST CENTRAL IOWA

CITY           SKY/WX    TMP DP  RH WIND       PRES   REMARKS
DAVENPORT      PTCLDY    29  28  96 SE7       29.98F FOG     WCI  22
IOWA CITY      FOG       31  30  96 CALM      29.98F VSB 1/4
MUSCATINE *    FOG       27  25  93 CALM      29.98F VSB 1/4
QUAD CITIES    CLOUDY    28  26  92 E7        29.97F FOG     WCI  21
$$

IAZ062-063-075>077-085>089-095>099-191100-
   SOUTHEAST IOWA

CITY           SKY/WX    TMP DP  RH WIND       PRES   REMARKS
BURLINGTON     PTCLDY    34  32  92 S6        29.96F WCI  29
FAIRFIELD *    CLEAR     30  28  93 SE5       29.93F FOG     WCI  25
FORT MADISON * CLEAR     36  34  93 SE6       29.97S WCI  31
KEOKUK *       PTCLDY    34  34 100 SE3       29.95S
OSKALOOSA *    FOG       30  30  99 E5        29.92F VSB 1/2 WCI  25
OTTUMWA        MOCLDY    30  28  92 E5        29.91F FOG     WCI  25
WASHINGTON *   CLEAR     28  28 100 E3        29.96S FOG
$$

ABBREVIATIONS USED IN REMARKS
   TC - TEMPERATURES IN CELSIUS
  WCI - WIND CHILL INDEX
   HX - HEAT INDEX
  VSB - VISIBILITY
$$





USA.gov is the U.S. government's official web portal to all federal, state and local government web resources and services.